Ely, MN

10:09 AM CDT on April 29, 2017 (GMT -0500)
Ely Municipal

Weather History for KELO - September, 2011

Change the Weather History Date:

Wednesday, September 14, 2011

  Actual Average Record
Temperature  
Mean Temperature 40 °F -  
Max Temperature 48 °F 65 °F 80 °F (1997)
Min Temperature 32 °F 44 °F 30 °F (2012)
Degree Days  
Heating Degree Days 25    
Moisture  
Dew Point 31 °F    
Average Humidity 78    
Maximum Humidity 93    
Minimum Humidity 46    
Precipitation  
Precipitation 0.05 in - - ()
Sea Level Pressure  
Sea Level Pressure 30.12 in    
Wind  
Wind Speed 9 mph (WNW)    
Max Wind Speed 17 mph    
Max Gust Speed 34 mph    
Visibility 10 miles    
Events Rain    
Averages and records for this station are not official NWS values.
T = Trace of Precipitation, MM = Missing Value Source: NWS Daily Summary

Daily Weather History Graph

Daily Weather History Graph

Search for Another Location

Airport or City:

Trip Planner

Search our weather history database for the weather conditions in past years. The results will help you decide how hot, cold, wet, or windy it might be!

Date:

Astronomy

Sep. 14, 2011 Rise Set
Actual Time 6:42 AM CDT 7:22 PM CDT
Civil Twilight 6:11 AM CDT 7:53 PM CDT
Nautical Twilight 5:34 AM CDT 8:30 PM CDT
Astronomical Twilight 4:55 AM CDT 9:08 PM CDT
Moon 7:49 PM CDT (9/14) 9:09 AM CDT (9/14)
Length of Visible Light 13h 41m
Length of Day
12h 39m
Waning Gibbous, 95% of the Moon is Illuminated
Sep 14
Waning Gibbous
Sep 20
Last Quarter
Sep 27
New
Oct 3
First Quarter
Oct 11
Full

Hourly Weather History & Observations

Time (CDT) Temp. Windchill Dew Point Humidity Pressure Visibility Wind Dir Wind Speed Gust Speed Precip Events Conditions
12:12 AM 39.2 °F 33.0 °F 35.6 °F 87% 29.99 in 10.0 mi NW 9.2 mph - N/A   Clear
12:33 AM 37.4 °F 31.4 °F 35.6 °F 93% 30.00 in 10.0 mi WNW 8.1 mph - N/A   Scattered Clouds
12:52 AM 37.4 °F 30.8 °F 35.6 °F 93% 30.01 in 10.0 mi WNW 9.2 mph 17.3 mph N/A   Mostly Cloudy
1:13 AM 37.4 °F 27.8 °F 33.8 °F 87% 30.02 in 10.0 mi NW 17.3 mph 25.3 mph N/A   Mostly Cloudy
1:32 AM 37.4 °F 28.2 °F 30.2 °F 75% 30.03 in 10.0 mi NW 16.1 mph 23.0 mph N/A   Mostly Cloudy
1:53 AM 37.4 °F 32.1 °F 28.4 °F 70% 30.03 in 10.0 mi NW 6.9 mph 20.7 mph N/A   Scattered Clouds
2:12 AM 35.6 °F 31.7 °F 28.4 °F 75% 30.03 in 10.0 mi WNW 4.6 mph - N/A   Clear
2:33 AM 35.6 °F 29.2 °F 28.4 °F 75% 30.04 in 10.0 mi WNW 8.1 mph - N/A   Clear
2:52 AM 33.8 °F 29.6 °F 28.4 °F 81% 30.05 in 10.0 mi WNW 4.6 mph - N/A   Clear
3:13 AM 33.8 °F 28.6 °F 30.2 °F 87% 30.05 in 10.0 mi WNW 5.8 mph - N/A   Clear
3:33 AM 33.8 °F 30.8 °F 30.2 °F 87% 30.06 in 10.0 mi West 3.5 mph - N/A   Clear
3:52 AM 32.0 °F 26.4 °F 30.2 °F 93% 30.06 in 10.0 mi West 5.8 mph - N/A   Clear
4:12 AM 32.0 °F 26.4 °F 30.2 °F 93% 30.07 in 10.0 mi West 5.8 mph - N/A   Clear
4:33 AM 32.0 °F 26.4 °F 30.2 °F 93% 30.07 in 10.0 mi West 5.8 mph - N/A   Clear
4:52 AM 32.0 °F 28.7 °F 30.2 °F 93% 30.07 in 10.0 mi West 3.5 mph - N/A   Clear
5:12 AM 32.0 °F 27.5 °F 30.2 °F 93% 30.07 in 10.0 mi West 4.6 mph - N/A   Clear
5:33 AM 32.0 °F 27.5 °F 28.4 °F 87% 30.07 in 10.0 mi West 4.6 mph - N/A   Scattered Clouds
5:52 AM 32.0 °F 26.4 °F 30.2 °F 93% 30.08 in 10.0 mi West 5.8 mph - N/A   Scattered Clouds
6:12 AM 33.8 °F 27.7 °F 30.2 °F 87% 30.08 in 10.0 mi West 6.9 mph - N/A   Mostly Cloudy
6:33 AM 33.8 °F 29.6 °F 30.2 °F 87% 30.08 in 10.0 mi WNW 4.6 mph - N/A   Scattered Clouds
6:52 AM 32.0 °F 28.7 °F 30.2 °F 93% 30.09 in 10.0 mi WNW 3.5 mph - N/A   Scattered Clouds
7:12 AM 33.8 °F 29.6 °F 30.2 °F 87% 30.10 in 10.0 mi WNW 4.6 mph - N/A   Mostly Cloudy
7:33 AM 33.8 °F 27.0 °F 30.2 °F 87% 30.10 in 10.0 mi WNW 8.1 mph - N/A   Scattered Clouds
7:52 AM 35.6 °F 29.2 °F 30.2 °F 81% 30.11 in 10.0 mi WNW 8.1 mph - N/A   Clear
8:12 AM 35.6 °F 29.9 °F 32.0 °F 87% 30.11 in 10.0 mi WNW 6.9 mph - N/A   Clear
8:33 AM 37.4 °F 30.3 °F 32.0 °F 81% 30.12 in 10.0 mi WNW 10.4 mph - N/A   Scattered Clouds
8:52 AM 37.4 °F 30.3 °F 33.8 °F 87% 30.12 in 10.0 mi NW 10.4 mph 16.1 mph N/A   Scattered Clouds
9:12 AM 39.2 °F 33.6 °F 33.8 °F 81% 30.13 in 10.0 mi WNW 8.1 mph 16.1 mph N/A   Scattered Clouds
9:33 AM 39.2 °F 33.0 °F 32.0 °F 75% 30.13 in 10.0 mi WNW 9.2 mph - N/A   Scattered Clouds
9:53 AM 41.0 °F 34.3 °F 32.0 °F 70% 30.13 in 10.0 mi WNW 11.5 mph 20.7 mph N/A   Mostly Cloudy
10:12 AM 42.8 °F 37.0 °F 32.0 °F 66% 30.13 in 10.0 mi NW 10.4 mph 19.6 mph N/A   Mostly Cloudy
10:33 AM 42.8 °F 37.0 °F 32.0 °F 66% 30.14 in 10.0 mi NW 10.4 mph 18.4 mph N/A   Mostly Cloudy
10:53 AM 42.8 °F 34.8 °F 32.0 °F 66% 30.14 in 10.0 mi WNW 17.3 mph 24.2 mph N/A   Mostly Cloudy
11:13 AM 44.6 °F 37.2 °F 30.2 °F 57% 30.14 in 10.0 mi West 17.3 mph 23.0 mph N/A   Mostly Cloudy
11:33 AM 44.6 °F 40.7 °F 30.2 °F 57% 30.14 in 10.0 mi NW 6.9 mph 19.6 mph N/A   Mostly Cloudy
11:52 AM 44.6 °F 38.1 °F 30.2 °F 57% 30.14 in 10.0 mi NW 13.8 mph 27.6 mph N/A   Mostly Cloudy
12:12 PM 44.6 °F 37.8 °F 30.2 °F 57% 30.14 in 10.0 mi West 15.0 mph 23.0 mph N/A   Mostly Cloudy
12:33 PM 46.4 °F 40.1 °F 30.2 °F 53% 30.14 in 10.0 mi WNW 15.0 mph 24.2 mph N/A   Mostly Cloudy
12:52 PM 48.2 °F - 28.4 °F 46% 30.14 in 10.0 mi WNW 13.8 mph 19.6 mph N/A   Scattered Clouds
1:12 PM 46.4 °F 42.4 °F 28.4 °F 50% 30.13 in 10.0 mi NW 8.1 mph 21.9 mph N/A Rain Light Rain
1:33 PM 42.8 °F 35.4 °F 32.0 °F 66% 30.15 in 10.0 mi NNW 15.0 mph 23.0 mph N/A Rain Rain
1:52 PM 37.4 °F 29.3 °F 33.8 °F 87% 30.17 in 7.0 mi NW 12.7 mph - 0.02 in Rain Rain
1:55 PM 37.4 °F 31.4 °F 33.8 °F 87% 30.17 in 7.0 mi NNW 8.1 mph 17.3 mph 0.03 in Rain Rain
2:12 PM 42.8 °F 36.2 °F 33.8 °F 70% 30.16 in 10.0 mi WNW 12.7 mph 20.7 mph N/A   Mostly Cloudy
2:33 PM 44.6 °F 39.2 °F 30.2 °F 57% 30.15 in 10.0 mi NW 10.4 mph 17.3 mph N/A   Scattered Clouds
2:52 PM 39.2 °F 32.0 °F 33.8 °F 81% 30.17 in 7.0 mi North 11.5 mph 34.5 mph N/A Rain Light Rain
3:12 PM 37.4 °F 30.3 °F 33.8 °F 87% 30.18 in 10.0 mi North 10.4 mph 19.6 mph N/A Rain Light Rain
3:33 PM 41.0 °F 36.4 °F 33.8 °F 76% 30.17 in 10.0 mi NNW 6.9 mph 16.1 mph N/A   Mostly Cloudy
3:52 PM 41.0 °F 35.8 °F 32.0 °F 70% 30.17 in 10.0 mi NW 8.1 mph - N/A   Scattered Clouds
4:12 PM 37.4 °F 30.3 °F 33.8 °F 87% 30.19 in 10.0 mi NNW 10.4 mph 28.8 mph N/A Rain Light Rain
4:33 PM 39.2 °F 35.0 °F 33.8 °F 81% 30.19 in 10.0 mi NW 5.8 mph - N/A   Scattered Clouds
4:52 PM 39.2 °F 33.6 °F 32.0 °F 75% 30.20 in 10.0 mi NW 8.1 mph - N/A   Clear
5:12 PM 41.0 °F 34.3 °F 32.0 °F 70% 30.21 in 10.0 mi NNW 11.5 mph 21.9 mph N/A   Scattered Clouds
5:32 PM 39.2 °F 33.0 °F 30.2 °F 70% 30.21 in 10.0 mi NNW 9.2 mph 16.1 mph N/A   Scattered Clouds
5:53 PM 39.2 °F 32.5 °F 30.2 °F 70% 30.21 in 10.0 mi NNW 10.4 mph 16.1 mph N/A   Scattered Clouds
6:12 PM 37.4 °F 30.8 °F 28.4 °F 70% 30.21 in 10.0 mi NW 9.2 mph - 0.02 in   Scattered Clouds
6:33 PM 37.4 °F 32.8 °F 30.2 °F 75% 30.22 in 10.0 mi WNW 5.8 mph - 0.02 in   Clear
6:53 PM 37.4 °F 32.8 °F 32.0 °F 81% 30.22 in 10.0 mi WNW 5.8 mph - 0.02 in   Clear
6:55 PM 37.4 °F 32.1 °F 32.0 °F 81% 30.22 in 10.0 mi WNW 6.9 mph - 0.02 in   Clear
7:12 PM 37.4 °F 32.1 °F 32.0 °F 81% 30.23 in 10.0 mi WNW 6.9 mph - N/A   Clear
7:33 PM 35.6 °F 30.7 °F 32.0 °F 87% 30.24 in 10.0 mi WNW 5.8 mph - N/A   Clear
7:52 PM 35.6 °F 30.7 °F 30.2 °F 81% 30.24 in 10.0 mi WNW 5.8 mph - N/A   Clear
8:12 PM 33.8 °F 30.8 °F 30.2 °F 87% 30.25 in 10.0 mi WNW 3.5 mph - N/A   Clear
8:33 PM 33.8 °F 29.6 °F 30.2 °F 87% 30.25 in 10.0 mi West 4.6 mph - N/A   Clear
8:52 PM 33.8 °F 30.8 °F 30.2 °F 87% 30.26 in 10.0 mi West 3.5 mph - N/A   Clear
9:12 PM 32.0 °F 28.7 °F 30.2 °F 93% 30.26 in 10.0 mi West 3.5 mph - N/A   Clear
9:33 PM 30.2 °F 26.7 °F 30.2 °F 100% 30.26 in 10.0 mi West 3.5 mph - N/A   Clear
9:52 PM 30.2 °F 26.7 °F 30.2 °F 100% 30.27 in 10.0 mi West 3.5 mph - N/A   Clear
10:12 PM 30.2 °F 25.4 °F 28.4 °F 93% 30.27 in 10.0 mi WSW 4.6 mph - N/A   Clear
10:33 PM 30.2 °F 26.7 °F 28.4 °F 93% 30.27 in 10.0 mi West 3.5 mph - N/A   Clear
10:52 PM 30.2 °F - 28.4 °F 93% 30.28 in 10.0 mi Calm Calm - N/A   Clear
11:12 PM 28.4 °F 23.3 °F 28.4 °F 100% 30.28 in 10.0 mi West 4.6 mph - N/A   Clear
11:33 PM 28.4 °F 24.6 °F 28.4 °F 100% 30.29 in 10.0 mi WNW 3.5 mph - N/A   Clear
11:52 PM 28.4 °F 24.6 °F 28.4 °F 100% 30.29 in 10.0 mi West 3.5 mph - N/A   Clear